Location: Pensacola
(30.4142°N, 87.2155°W)
Time: 17:21:01
(UTC-05:00)

NANOSAT C BR1 - Pass Details

Date: 06 August 2024
Orbit: 544 x 550 km, 98.1° (Epoch: 12 September)

Event Time Altitude Azimuth Distance (km) Brightness Sun altitude
Rises 04:32:44 0° 20° (NNE) 2,751 ? -19.7°
Reaches altitude 10° 04:34:57 10° 27° (NNE) 1,852 ? -19.3°
Maximum altitude 04:38:47 44° 100° (E) 785 ? -18.6°
Enters shadow 04:42:21 12° 171° (S) 1,745 ? -17.9°
